Home > Weather > Kyoto > Past weeks

Flag for Japan Weather for the Past 2 Weeks in Kyoto, Japan

Now
52 °F

Sunny.


Feels Like: 52 °F
Forecast: 25 / 58 °F
Wind: 2 mph from North

Location: Osaka International Airport

Current Time: Feb 11, 2016 at 2:40:25 PM

Latest Report: Feb 11, 2016 at 2:00 PM


Visibility: 10 mi

Pressure: 30.36 "Hg

Humidity: 32%

Dew point: 23 °F

Location of KyotoLocation

Historic Weather in Kyoto — Graph

°F

Kyoto Temperature Yesterday

Maximum temperature yesterday: 48 °F (at 12:00 PM)
Minimum temperature yesterday: 34 °F (at 5:00 AM)
Average temperature yesterday: 42 °F

High & Low Weather Summary for the Past Weeks

 TemperatureHumidityPressure
High52 °F (Jan 27, 2:00 PM)100% (Jan 29, 6:00 AM)30.45 "Hg (Jan 29, 6:00 AM)
Low28 °F (Feb 4, 6:00 AM)20% (Feb 8, 2:00 PM)29.89 "Hg (Feb 9, 7:00 AM)
Average44 °F56%30.14 "Hg
* Reported Jan 27 1:00 PM — Feb 11 1:00 PM, Kyoto, Weather by CustomWeather, © 2016

Note: Actual official high and low records may vary slightly from our data, if they occured in-between our weather recording intervals... More about our weather records

Advertising

Kyoto Weather History for the Previous 24 Hours

 ConditionsComfort  
Time TempWeatherWind HumidityBarometerVisibility
1:00 PM
Thu, Feb 11
50 °FSunny.3 mph35%30.39 "Hg10 mi
12:00 PM48 °FSunny.3 mph40%30.42 "Hg10 mi
11:00 AM46 °FPassing clouds.3 mph43%30.42 "HgN/A
10:00 AM43 °FSunny.1 mph49%30.45 "Hg10 mi
9:00 AM39 °FSunny.1 mph61%30.45 "Hg10 mi
8:00 AM36 °FSunny.5 mph70%30.45 "Hg10 mi
7:00 AM32 °FSunny.5 mph75%30.42 "Hg10 mi
6:00 AM32 °FClear.5 mph75%30.42 "Hg10 mi
5:00 AM32 °FClear.5 mph75%30.39 "Hg10 mi
8:00 PM
Wed, Feb 10
39 °FPassing clouds.3 mph48%30.36 "HgN/A
7:00 PM41 °FClear.6 mph42%30.33 "Hg10 mi
6:00 PM43 °FPassing clouds.13 mph36%30.33 "HgN/A
5:00 PM45 °FPassing clouds.16 mph37%30.30 "HgN/A
4:00 PM46 °FPassing clouds.15 mph34%30.27 "HgN/A
3:00 PM48 °FPassing clouds.10 mph37%30.27 "HgN/A
2:00 PM46 °FPartly sunny.13 mph37%30.27 "HgN/A
Weather by CustomWeather, © 2016

See weather overviewHow to use our weather pages